Location: Newark
(45.0242°N, 16.0939°E)
Time: 13:25:15
(UTC+00:00)

N. Korean satellite - Pass Details

Date: 22 September 2019
Orbit: 455 x 508 km, 97.2° (Epoch: 14 October)

Event Time Altitude Azimuth Distance (km) Brightness Sun altitude
Rises 04:07:20 0° 27° (NNE) 2,482 10.7 -7.0°
Reaches altitude 10° 04:09:47 10° 45° (NE) 1,601 10.1 -6.5°
Maximum altitude 04:12:22 20° 94° (E) 1,119 9.7 -6.1°
Drops below altitude 10° 04:14:57 10° 143° (SE) 1,595 9.6 -5.6°
Sets 04:17:23 0° 161° (SSE) 2,468 10.3 -5.2°
